CZ-4C DEB, 43411

Orbit data source: Space-Track

CZ-4C DEB, 43411 is space debris in SSO originally from a launch on Mon, 23 Sep 2013 UTC launched from the Taiyaun Space Center, China (TSC). Debris objects in space refer to the collection of defunct objects orbiting the Earth. Examples of debris include non-operational satellites, rocket bodies, and fragments generated from explosions, collisions, or faulty payload assembly.

Loading next visibility...
Identifier
43411, 2013-052F
Orbit
SSO
Country
Flag of CNCN / PRC
Related business
Manufacturer
SAST
Mission
Spacecraft
Bus & Motor
Unknown
Mass
Unknown
Launch date (UTC)
2013-09-23 (13 years ago)
Launch vehicle
Unknown
Launch site
Taiyaun Space Center, China (TSC)
Object type
Payload
Rocket body
Debris
Shape & HBR
Unknown shape, 0.1 m
Radar Cross Section
Small (<0.1 m²)

Expand to show TLE details & history
Last TLE update: 1 week ago

TLE from 1 week ago
0 CZ-4C DEB
1 43411U 13052F   26166.02417999  .00000059  00000-0  41561-4 0  9991
2 43411  98.5359 248.3840 0005781  52.0961 308.0742 14.27179280654085
Epoch: 2026-06-15T00:34Z
TLE epoch observation values (Epoch: 2026-06-15T00:34:49.151Z)
Latitude
Longitude
-23.6373°
Altitude
801.546 km
Speed
7.454 km/s
True Right ascension
16h 33m 32s
True Declination
0° 00' 00"
Sunlit
Object was in full shadow at epoch
Visualization orbit readout
Latitude
Unknown
Longitude
Unknown
Altitude
Unknown
Speed
Unknown
Apparent Right ascension
Unknown
Apparent Declination
Unknown
Sunlit
N/A
Visualization observer readout
Local Sidereal Time
21:32:40
Azimuth
Unknown
Elevation
Unknown
Doppler factor
Unknown
Orbital elements
Apogee altitude
802.464 km
Perigee altitude
794.167 km
Semi-major axis
7,176.453 km
Eccentricity
0.00058
Inclination
98.5359°
RAAN
248.384°
Arg. of periapsis
52.0961°
True anomaly
308.02203°
Mean anomaly
308.0742°
Eccentric anomaly
308.04812°
Mean motion
3.57008 °/min
Orbital period
100.84 mins
BSTAR
0.000041561
Loading maneuver chart data...
Computing Atmospheric mass density...
Loading historical data...
Loading historical data...
Loading historical data...
Loading historical data...
Loading historical data...
Loading historical data...
Loading historical data...
Other satellites on launch #52 in the year 2013 (2013-09-23 UTC)

Documentation

Showing up to 5 results
|